This is the latest recevied weather packets stored in our database for station/object N4XHQ-13. If no packets are shown the sender has not sent any weather packets the latest 10 day(s).
| Time | Temp. | Humidity | Pressure | Rain* | Wind** | Luminosity | Snow |
|---|---|---|---|---|---|---|---|
| 1788536960 | 35° C | 46% | 1017.2 hPa | 0 mm | - | 735 W/m² | - |
| 1788536661 | 34.44° C | 46% | 1017.1 hPa | 0 mm | - | 725 W/m² | - |
| 1788536356 | 33.89° C | 48% | 1016.9 hPa | 0 mm | - | 710 W/m² | - |
| 1788536051 | 33.89° C | 49% | 1017.2 hPa | 0 mm | - | 698 W/m² | - |
| 1788535747 | 33.89° C | 49% | 1017 hPa | 0 mm | - | 668 W/m² | - |
| 1788535442 | 34.44° C | 48% | 1017 hPa | 0 mm | - | 714 W/m² | - |
| 1788535141 | 33.89° C | 48% | 1017 hPa | 0 mm | - | 697 W/m² | - |
| 1788534836 | 33.89° C | 51% | 1016.9 hPa | 0 mm | - | 676 W/m² | - |
| 1788534532 | 33.33° C | 51% | 1017 hPa | 0 mm | - | 633 W/m² | - |
| 1788534227 | 33.33° C | 52% | 1017 hPa | 0 mm | - | 634 W/m² | - |
| 1788533924 | 33.33° C | 51% | 1017.1 hPa | 0 mm | - | 617 W/m² | - |
| 1788533621 | 32.78° C | 53% | 1016.9 hPa | 0 mm | - | 568 W/m² | - |
| 1788533316 | 32.78° C | 53% | 1016.6 hPa | 0 mm | - | 525 W/m² | - |
| 1788533012 | 32.78° C | 55% | 1016.7 hPa | 0 mm | - | 533 W/m² | - |
| 1788532707 | 32.78° C | 55% | 1016.7 hPa | 0 mm | - | 426 W/m² | - |
| 1788532404 | 32.78° C | 55% | 1017 hPa | 0 mm | - | 489 W/m² | - |
| 1788532100 | 32.22° C | 55% | 1016.6 hPa | 0 mm | - | 476 W/m² | - |
| 1788531796 | 31.67° C | 57% | 1016.9 hPa | 0 mm | - | 463 W/m² | - |
| 1788531496 | 31.67° C | 58% | 1016.7 hPa | 0 mm | - | 442 W/m² | - |
| 1788531191 | 31.11° C | 58% | 1016.6 hPa | 0 mm | - | 427 W/m² | - |
| 1788530887 | 31.11° C | 59% | 1016.9 hPa | 0 mm | - | 368 W/m² | - |
| 1788530582 | 31.11° C | 59% | 1016.9 hPa | 0 mm | - | 227 W/m² | - |
| 1788530281 | 31.67° C | 59% | 1016.7 hPa | 0 mm | - | 361 W/m² | - |
| 1788529976 | 31.11° C | 59% | 1016.7 hPa | 0 mm | - | 341 W/m² | - |
| 1788529673 | 30.56° C | 61% | 1016.7 hPa | 0 mm | - | 322 W/m² | - |
* Rain latest hour (hover to see other rain measurements)
** Current wind speed in m/s (hover to see current wind gust speed)